{"data":{"norad_id":45431,"epoch":"2026-05-25T03:29:53.318400Z","epoch_age_seconds":62645,"freshness":"FRESH","line1":"1 45431U 20020H   26145.14575600 -.00000282  00000+0 -83243-3 0  9993","line2":"2 45431  87.8904  25.6601 0001605  80.4575 279.6734 13.11414616299631","mean_motion":13.11414616,"eccentricity":0.0001605,"inclination_deg":87.8904,"raan_deg":25.6601,"arg_perigee_deg":80.4575,"mean_anomaly_deg":279.6734,"bstar":-0.00083243,"rev_number":29963,"period_min":109.80509004789,"perigee_km":1216.4725610372,"apogee_km":1218.9108220472,"semimajor_km":7595.8286915422,"source":"CELESTRAK","updated_at":"2026-05-25T13:38:22.342197Z"}}